Regional Weather Roundup
Issued by NWS

Home | Current Version | Previous Version | Text Only | Print | Product List | Glossary On
Versions: 1 2 3 4 5 6 7 8 9 10 11 12 13 14 15 16 17 18 19 20 21 22 23 24 25 26 27 28 29 30 31 32 33 34 35 36 37 38 39 40 41 42 43 44 45 46 47 48 49 50
000
ASUS46 KSTO 290815
RWRCA

NORTHERN AND CENTRAL CA REGIONAL WEATHER ROUNDUP
NATIONAL WEATHER SERVICE SACRAMENTO CA
100 AM PDT MON MAY 29 2017

NOTE: FAIR INDICATES FEW OR NO CLOUDS BELOW 12,000 FEET WITH NO
SIGNIFICANT WEATHER AND/OR OBSTRUCTIONS TO VISIBILITY.

CAZ001-003-290900-
NORTHWEST AREA

CITY           SKY/WX    TMP DP  RH WIND       PRES   REMARKS
CRESCENT CITY  CLOUDY    52  51  97 N6        30.09F
UKIAH          PTCLDY    57  49  74 CALM      29.99S
$$

CAZ006-505>513-290900-
BAY AREA

CITY           SKY/WX    TMP DP  RH WIND       PRES   REMARKS
SANTA ROSA     CLOUDY    52  50  93 S6        29.99S
SAN RAFAEL     N/A       53  MM  MM MISG
NAPA           CLOUDY    58  52  80 SW7       30.00S
CONCORD        PTCLDY    56  51  84 S15       29.98F
OAKLAND CITY   N/A      MM  MM  MM MISG
OAKLAND        CLOUDY    56  52  86 W10       30.03F
SAN FRAN CITY  N/A       52  MM  87 MISG
SAN FRAN ARPT  CLOUDY    54  49  83 W14       30.03F
LIVERMORE      CLOUDY    54  50  86 W10       30.00F
HAYWARD        CLOUDY    56  48  74 W10       30.03F
REDWOOD CITY   N/A       54  MM  86 MISG
MOFFETT ARPT   CLOUDY    56  51  84 CALM      30.03F
SAN JOSE ARPT  CLOUDY    57  52  83 N3        30.03S
$$
CAZ034-037-514>518-290900-
CENTRAL COAST

CITY           SKY/WX    TMP DP  RH WIND       PRES   REMARKS
WATSONVILLE    CLOUDY    53  53 100 CALM      30.02F
SALINAS        CLOUDY    56  52  86 W12       30.02F
MONTEREY       CLOUDY    53  51  93 VRB6      30.04F
SAN LUIS OBISP CLOUDY    56  52  86 W5        29.99F
SANTA MARIA    CLOUDY    53  52  96 W7        30.00F
$$
CAZ015-016-290900-
NORTHERN SACRAMENTO VALLEY

CITY           SKY/WX    TMP DP  RH WIND       PRES   REMARKS
REDDING        CLEAR     70  58  65 NE3       29.92S
RED BLUFF      CLEAR     65  57  75 NW3       29.92S
OROVILLE       CLEAR     71  58  63 SE7       29.93S
$$
CAZ016>018-290900-
SOUTHERN SACRAMENTO VALLEY

CITY           SKY/WX    TMP DP  RH WIND       PRES   REMARKS
AUBURN         CLEAR     68  57  68 W5        29.97S
BEALE AFB      CLEAR     63  58  81 SE6       29.90S
LINCOLN        FAIR      63  54  72 SE7       29.92F
MARYSVILLE     CLEAR     67  57  70 SE9       29.92S
SAC INTL ARPT  CLEAR     59  54  83 SE12      29.92S
MATHER AIRPORT NOT AVBL
DOWNTOWN SAC   N/A       61  MM  MM MISG
SAC EXEC ARPT    N/A    N/A N/A N/A MISG        N/A
VACAVILLE      CLEAR     61  53  75 SW6       29.92S
TRAVIS AFB     CLEAR     55  52  90 SW29G35   29.90F
$$
CAZ019>021-290900-
SAN JOAQUIN VALLEY

CITY           SKY/WX    TMP DP  RH WIND       PRES   REMARKS
STOCKTON       CLEAR     60  52  74 W13       29.94F
MODESTO        CLEAR     65  52  62 N9        29.92F
MERCED         CLEAR     63  52  67 NW5       29.92S
LEMOORE        PTCLDY    70  50  49 NW9       29.92F
FRESNO         CLEAR     72  57  59 NW10      29.93R
HANFORD        CLEAR     71  58  63 NW10      29.93S
PORTERVILLE      N/A     68  56  65 SE5       29.93S
BAKERSFIELD    CLEAR     77  54  44 CALM      29.92S
$$
CAZ011-012-071-290900-
NORTHERN MOUNTAINS

CITY           SKY/WX    TMP DP  RH WIND       PRES   REMARKS
YREKA          CLEAR     63  52  67 NE5       30.06R
MOUNT SHASTA   CLEAR     53  34  48 NE3       30.08F
ALTURAS        CLEAR     52  36  54 E3        30.13S
$$
CAZ011-012-071-290900-
SIERRA NEVADA MTNS

CITY           SKY/WX    TMP DP  RH WIND       PRES   REMARKS
BLUE CANYON    CLEAR     63  36  36 NE5       30.17F
TRUCKEE        CLEAR     43  37  81 CALM      30.23S
TAHOE VLY ARPT CLEAR     47  38  71 VRB3      30.23S
MAMMOTH LAKES  FAIR      46  31  56 NW8       30.26F
$$



USA.gov is the U.S. government's official web portal to all federal, state and local government web resources and services.